DW4577 Weather Reports


Display with metric or nautical units.
time (UTC)temp
F
wind
direction
speed
MPH
gust
MPH
rain 1hr
in
rain 24hr
in
rain mn
in
humidity
%
barometer
mb
20260510061551 67 316 8.0 13.0 0.00 0.13 0.01 62 1010.9
20260510060050 67 307 5.0 12.0 0.00 0.13 0.01 61 1010.7
20260510054549 66 329 6.0 11.0 0.00 0.13 0.01 62 1010.6
20260510053046 66 336 4.0 9.0 0.00 0.13 0.01 63 1010.6
20260510051546 66 15 1.0 8.0 0.00 0.13 0.01 64 1010.6
20260510050044 66 338 2.0 13.0 0.00 0.13 0.01 64 1010.4
20260510044549 66 285 4.0 11.0 0.00 0.13 0.01 65 1010.2
20260510043041 66 329 2.0 6.0 0.00 0.13 0.01 64 1010.0
20260510041542 66 290 1.0 4.0 0.00 0.13 0.01 63 1009.8
20260510040038 66 310 0.0 5.0 0.00 0.13 0.01 63 1009.8
20260510034538 66 292 5.0 15.0 0.00 0.13 0.01 64 1009.6
20260510033039 65 329 5.0 10.0 0.00 0.13 0.01 68 1009.6
20260510031536 64 19 2.0 4.0 0.00 0.13 0.01 71 1009.6
20260510030033 65 273 1.0 6.0 0.00 0.13 0.01 71 1009.7
20260510024532 65 250 1.0 3.0 0.00 0.13 0.01 71 1009.8
20260510023032 65 250 0.0 2.0 0.00 0.13 0.01 70 1009.7
20260510021536 65 250 0.0 3.0 0.00 0.13 0.01 70 1009.7
20260510020029 65 176 0.0 2.0 0.00 0.13 0.01 70 1009.7
20260510014527 65 176 0.0 3.0 0.00 0.13 0.01 69 1009.8
20260510013024 65 195 1.0 4.0 0.00 0.13 0.01 69 1009.9
20260510011522 66 195 0.0 4.0 0.00 0.13 0.01 69 1010.1
20260510010022 66 189 1.0 7.0 0.00 0.13 0.01 68 1010.0
20260510004520 66 192 2.0 9.0 0.00 0.13 0.01 68 1010.3
20260510003023 66 273 2.0 7.0 0.00 0.13 0.01 67 1010.3
20260510001517 66 163 2.0 10.0 0.00 0.13 0.01 67 1010.2
20260510000019 66 92 2.0 7.0 0.00 0.13 0.01 67 1010.6
20260509234514 66 171 5.0 11.0 0.01 0.13 0.01 66 1010.5
20260509233012 67 160 4.0 12.0 0.01 0.13 0.01 65 1010.5
20260509231511 67 173 3.0 11.0 0.01 0.13 0.01 63 1010.8
20260509230010 67 194 5.0 14.0 0.01 0.13 0.01 61 1010.9
20260509224508 67 213 4.0 10.0 0.00 0.12 0.00 62 1011.2
20260509223004 67 211 2.0 11.0 0.00 0.12 0.00 62 1010.8
20260509221502 67 140 2.0 8.0 0.00 0.12 0.00 61 1010.5
20260509214608 67 164 3.0 9.0 0.00 0.12 0.12 61 1010.8
20260509213059 67 137 3.0 10.0 0.00 0.12 0.12 60 1011.1
20260509211600 67 192 2.0 14.0 0.00 0.12 0.12 59 1011.0
20260509210114 67 159 3.0 9.0 0.00 0.12 0.12 58 1010.7
20260509204559 67 233 2.0 10.0 0.00 0.12 0.12 57 1010.6
20260509203055 67 167 2.0 7.0 0.03 0.12 0.12 56 1010.1
20260509201600 67 137 7.0 11.0 0.08 0.12 0.12 58 1009.7
20260509194555 65 81 6.0 12.0 0.12 0.12 0.12 64 1009.9
20260509193052 66 156 1.0 15.0 0.09 0.09 0.09 63 1009.7
20260509191653 67 136 5.0 13.0 0.06 0.06 0.06 60 1009.2
20260509190105 67 145 7.0 22.0 0.02 0.02 0.02 59 1009.4
20260509184551 69 360 4.0 14.0 0.00 0.00 0.00 55 1010.1
20260509183048 69 360 6.0 15.0 0.00 0.00 0.00 54 1009.9
20260509181548 70 360 7.0 18.0 0.00 0.00 0.00 51 1010.0
20260509180052 70 360 5.0 13.0 0.00 0.00 0.00 50 1009.7
20260509174546 70 360 2.0 9.0 0.00 0.00 0.00 51 1009.6
20260509173048 70 131 6.0 16.0 0.00 0.00 0.00 52 1009.1
20260509171643 70 360 6.0 15.0 0.00 0.00 0.00 50 1009.3
20260509170041 70 360 5.0 17.0 0.00 0.00 0.00 51 1009.7
20260509164547 70 360 6.0 13.0 0.00 0.00 0.00 51 1010.3
20260509163038 70 360 6.0 15.0 0.00 0.00 0.00 50 1010.4
20260509161538 71 360 6.0 13.0 0.00 0.00 0.00 47 1010.2
20260509160036 71 135 5.0 15.0 0.00 0.00 0.00 48 1010.3
20260509154536 72 360 5.0 14.0 0.00 0.00 0.00 46 1010.2
20260509153035 73 121 5.0 10.0 0.00 0.00 0.00 43 1010.2
20260509151537 73 166 4.0 11.0 0.00 0.00 0.00 44 1010.2
20260509150036 73 164 5.0 11.0 0.00 0.00 0.00 38 1010.3
20260509144533 72 360 3.0 8.0 0.00 0.00 0.00 40 1010.3
20260509143028 72 360 4.0 13.0 0.00 0.00 0.00 41 1010.4
20260509141526 71 360 4.0 14.0 0.00 0.00 0.00 44 1010.5
20260509140025 71 125 3.0 14.0 0.00 0.00 0.00 43 1010.7
20260509134523 71 143 7.0 12.0 0.00 0.00 0.00 45 1011.1
20260509133021 71 360 6.0 16.0 0.00 0.00 0.00 40 1011.7
20260509131526 71 360 3.0 9.0 0.00 0.00 0.00 41 1011.7
20260509130020 72 360 2.0 6.0 0.00 0.00 0.00 43 1011.7
20260509124522 72 136 1.0 5.0 0.00 0.00 0.00 44 1011.8
20260509123017 70 141 2.0 8.0 0.00 0.00 0.00 46 1011.9
20260509121524 70 187 4.0 9.0 0.00 0.00 0.00 46 1012.3
20260509120016 70 155 6.0 12.0 0.00 0.00 0.00 47 1011.7
20260509114522 70 186 2.0 4.0 0.00 0.00 0.00 52 1013.0
20260509113013 70 137 5.0 10.0 0.00 0.00 0.00 47 1012.3
20260509111512 71 201 2.0 14.0 0.00 0.00 0.00 45 1013.2
20260509110011 71 203 2.0 10.0 0.00 0.00 0.00 41 1012.9
20260509104509 72 164 4.0 11.0 0.00 0.00 0.00 41 1013.3
20260509103005 70 187 1.0 8.0 0.00 0.00 0.00 50 1013.3
20260509101503 69 257 2.0 7.0 0.00 0.00 0.00 53 1013.9
20260509100005 68 39 3.0 11.0 0.00 0.00 0.00 56 1013.0
20260509094601 68 118 10.0 14.0 0.00 0.00 0.00 56 1013.5
20260509093100 68 172 3.0 8.0 0.00 0.00 0.00 54 1015.2
20260509091559 69 176 4.0 11.0 0.00 0.00 0.00 53 1015.0
20260509090058 69 121 5.0 11.0 0.00 0.00 0.00 50 1015.3
20260509084601 70 150 4.0 9.0 0.00 0.00 0.00 47 1015.4
20260509083055 69 173 6.0 10.0 0.00 0.00 0.00 46 1015.7
20260509081553 69 184 3.0 11.0 0.00 0.00 0.00 49 1015.6
20260509080052 69 109 2.0 8.0 0.00 0.00 0.00 50 1015.4
20260509074558 68 189 2.0 9.0 0.00 0.00 0.00 54 1015.2
20260509073044 67 283 1.0 8.0 0.00 0.00 0.00 59 1015.2
20260509071543 66 360 3.0 8.0 0.00 0.00 0.00 59 1014.9
20260509070044 67 257 2.0 9.0 0.00 0.00 0.00 57 1014.5
20260509064555 66 360 1.0 5.0 0.00 0.00 0.00 58 1014.3
20260509063043 66 360 0.0 3.0 0.00 0.00 0.00 59 1014.5